TimeEST,TemperatureF,Dew PointF,Humidity,Sea Level PressureIn,VisibilityMPH,Wind Direction,Wind SpeedMPH,Gust SpeedMPH,PrecipitationIn,Events,Conditions,WindDirDegrees,DateUTC
12:53 AM,18.0,12.9,81,30.50,10.0,Calm,Calm,-,N/A,,Clear,0,2013-01-28 05:53:00
1:53 AM,18.0,14.0,84,30.47,9.0,Calm,Calm,-,N/A,,Clear,0,2013-01-28 06:53:00
2:53 AM,19.9,14.0,78,30.46,8.0,NW,3.5,-,N/A,,Clear,310,2013-01-28 07:53:00
3:53 AM,21.0,15.1,78,30.44,10.0,Calm,Calm,-,N/A,,Overcast,0,2013-01-28 08:53:00
4:53 AM,21.9,16.0,78,30.41,10.0,Calm,Calm,-,N/A,,Overcast,0,2013-01-28 09:53:00
5:53 AM,23.0,17.1,78,30.42,10.0,Calm,Calm,-,N/A,,Overcast,0,2013-01-28 10:53:00
6:53 AM,24.1,17.1,75,30.41,10.0,Calm,Calm,-,N/A,,Overcast,0,2013-01-28 11:53:00
7:53 AM,25.0,18.0,75,30.41,9.0,Calm,Calm,-,N/A,,Overcast,0,2013-01-28 12:53:00
8:17 AM,24.8,19.4,80,30.39,2.5,Calm,Calm,-,0.00,Snow,Light Snow,0,2013-01-28 13:17:00
8:27 AM,24.8,19.4,80,30.39,1.5,Calm,Calm,-,0.00,Snow,Light Snow,0,2013-01-28 13:27:00
8:35 AM,24.8,19.4,80,30.39,1.8,Calm,Calm,-,0.00,Snow,Light Snow,0,2013-01-28 13:35:00
8:53 AM,26.1,21.0,81,30.40,1.8,Calm,Calm,-,0.00,Snow,Light Snow,0,2013-01-28 13:53:00
9:40 AM,28.4,24.8,86,30.35,2.0,Variable,3.5,-,0.00,Snow,Light Snow,0,2013-01-28 14:40:00
9:48 AM,28.4,24.8,86,30.34,1.8,SE,4.6,-,0.00,Snow,Light Snow,140,2013-01-28 14:48:00
9:53 AM,28.0,24.1,85,30.35,1.2,SSE,5.8,-,0.00,Snow,Light Snow,150,2013-01-28 14:53:00
10:36 AM,28.4,26.6,93,30.33,2.0,South,5.8,-,0.00,Snow,Light Snow,180,2013-01-28 15:36:00
10:51 AM,30.2,26.6,86,30.32,3.0,South,4.6,-,0.00,,Overcast,180,2013-01-28 15:51:00
10:53 AM,30.0,27.0,88,30.33,3.0,South,5.8,-,0.00,,Overcast,170,2013-01-28 15:53:00
11:33 AM,30.2,28.4,93,30.29,2.5,SSE,3.5,-,0.00,,Overcast,150,2013-01-28 16:33:00
11:53 AM,30.9,28.9,92,30.26,2.0,SSE,4.6,-,0.00,,Overcast,160,2013-01-28 16:53:00
12:02 PM,30.2,30.2,100,30.24,1.8,SSE,5.8,-,0.00,,Overcast,160,2013-01-28 17:02:00
1:20 PM,33.8,30.2,87,30.18,3.0,South,3.5,-,0.00,,Overcast,190,2013-01-28 18:20:00
1:28 PM,32.0,30.2,93,30.17,2.5,South,3.5,-,0.00,,Overcast,190,2013-01-28 18:28:00
1:53 PM,33.1,30.9,92,30.16,2.5,Calm,Calm,-,0.00,Rain,Light Rain,0,2013-01-28 18:53:00
2:14 PM,33.8,32.0,93,30.14,1.5,Calm,Calm,-,0.02,Rain,Light Rain,0,2013-01-28 19:14:00
2:46 PM,33.8,32.0,93,30.11,0.8,South,3.5,-,0.04,Rain,Light Rain,170,2013-01-28 19:46:00
2:53 PM,33.1,32.0,96,30.12,0.8,Calm,Calm,-,0.06,Rain,Light Rain,0,2013-01-28 19:53:00
3:01 PM,33.8,32.0,93,30.11,1.0,Calm,Calm,-,0.00,Rain,Light Rain,0,2013-01-28 20:01:00
3:53 PM,33.1,32.0,96,30.10,1.0,Calm,Calm,-,0.06,Rain,Light Rain,0,2013-01-28 20:53:00
4:44 PM,33.8,32.0,93,30.08,2.0,Calm,Calm,-,0.02,,Overcast,0,2013-01-28 21:44:00
4:53 PM,33.1,32.0,96,30.08,2.0,Calm,Calm,-,0.02,,Overcast,0,2013-01-28 21:53:00
5:14 PM,33.8,32.0,93,30.07,4.0,SSW,3.5,-,0.00,,Overcast,200,2013-01-28 22:14:00
5:23 PM,33.8,32.0,93,30.06,4.0,South,3.5,-,0.00,,Overcast,170,2013-01-28 22:23:00
5:53 PM,33.1,32.0,96,30.06,4.0,Calm,Calm,-,0.00,,Overcast,0,2013-01-28 22:53:00
6:53 PM,33.1,32.0,96,30.07,4.0,Calm,Calm,-,0.02,Rain,Light Rain,0,2013-01-28 23:53:00
7:53 PM,33.1,33.1,100,30.06,3.0,Calm,Calm,-,0.00,,Overcast,0,2013-01-29 00:53:00
8:53 PM,33.1,33.1,100,30.04,3.0,Calm,Calm,-,N/A,,Overcast,0,2013-01-29 01:53:00
9:01 PM,33.8,33.8,100,30.03,2.5,Calm,Calm,-,N/A,,Overcast,0,2013-01-29 02:01:00
9:53 PM,33.1,33.1,100,30.02,2.5,Calm,Calm,-,N/A,,Overcast,0,2013-01-29 02:53:00
10:34 PM,33.8,33.8,100,30.01,1.5,Calm,Calm,-,N/A,,Overcast,0,2013-01-29 03:34:00
10:42 PM,33.8,33.8,100,30.01,1.2,Calm,Calm,-,N/A,,Overcast,0,2013-01-29 03:42:00
10:53 PM,33.1,33.1,100,30.02,1.8,Calm,Calm,-,N/A,,Overcast,0,2013-01-29 03:53:00
11:22 PM,33.8,32.0,93,30.01,2.0,Calm,Calm,-,N/A,,Mostly Cloudy,0,2013-01-29 04:22:00
11:29 PM,33.8,32.0,93,30.01,2.0,Calm,Calm,-,N/A,,Mostly Cloudy,0,2013-01-29 04:29:00
11:50 PM,33.8,33.8,100,30.01,2.5,Calm,Calm,-,N/A,,Overcast,0,2013-01-29 04:50:00
11:53 PM,33.1,33.1,100,30.02,2.5,Calm,Calm,-,N/A,,Overcast,0,2013-01-29 04:53:00